Regional Weather Roundup
Issued by NWS Grand Forks, ND

Home | Current Version | Previous Version | Graphics & Text | Print | Product List | Glossary On
Versions: 1 2 3 4 5 6 7 8 9 10 11 12 13 14 15 16 17 18 19 20 21 22 23 24 25 26 27 28 29 30 31 32 33 34 35 36 37 38 39 40 41 42 43 44 45 46 47 48 49 50
000
ASUS43 KFGF 270331
RWRFGF
PRAIRIE TO PINES  WEATHER ROUNDUP
NATIONAL WEATHER SERVICE EASTERN NORTH DAKOTA/GRAND FORKS ND
1000 PM CDT THU MAY 26 2016

 **SATELLITE DATA USED TO AUGMENT SKY COVER AT AUTOMATED STATIONS**
 *****  WEATHER ACROSS EASTERN NORTH DAKOTA  *****

CITY           SKY/WX    TMP DP  RH WIND       PRES   REMARKS
GRAND FORKS    PTCLDY    56  52  86 NW7       29.78S
GRAND FRKS AFB MOCLDY    58  54  85 NW6       29.79S
GRAND FRKS NWS   N/A     59 N/A N/A NW2         N/A
DEVILS LAKE    PTCLDY    57  53  86 N6        29.80R
FARGO          MOCLDY    66  56  70 E7        29.75F
WAHPETON ARPT  CLOUDY    66  48  52 CALM      29.77R
$$

 ***** WEATHER ACROSS CENTRAL AND WESTERN NORTH DAKOTA  *****

CITY           SKY/WX    TMP DP  RH WIND       PRES   REMARKS
BISMARCK       PTCLDY    62  48  60 NE7       29.82R
MINOT          CLOUDY    58  50  75 W7        29.81R
JAMESTOWN      PTCLDY    61  55  81 NE15      29.77F
MINOT AFB      MOCLDY    57  53  88 N3        29.80R
GARRISON         N/A     53  50  89 N6        29.81R
WILLISTON      CLOUDY    55  49  80 E5        29.83R
DICKINSON      PTCLDY    51  41  68 NW6       29.82R
HETTINGER      CLEAR     48  41  76 NW8       29.86R
$$

 *****  OTHER AIRPORT OBSERVATIONS IN OUR AREA  *****

CITY           SKY/WX    TMP DP  RH WIND       PRES   REMARKS
WALHALLA       FAIR      57  57 100 W3        29.79R
GRAFTON AIRPOR FAIR      59  59 100 W8        29.80F
VALLEY CITY AR CLOUDY    63  63 100 N15G21    29.80R
CANDO          FAIR      54  54 100 CALM      29.83R
CAVALIER APRT  CLOUDY    59  55  88 SW5       29.79R
GWINNER        FAIR      66  55  68 S13       29.78R
SHEYENNE NWR     N/A     66  52  61 S7        29.95S
ROLLA          CLOUDY    52  52 100 NW3       29.81R
 ***** THE ABOVE OBSERVATIONS ARE NON NWS ARE NOT QUALITY
       CONTROLLED AND MAY MIS-REPORT RAIN FOR SNOW...
$$

  *****  WEATHER ACROSS NORTHERN MINNESOTA  *****

CITY           SKY/WX    TMP DP  RH WIND       PRES   REMARKS
FLAG ISLAND    CLEAR     61  55  82 SW9       29.74R
WARROAD        PTCLDY    61  55  82 SW6       29.77S
ROSEAU         CLEAR     61  55  82 SW6       29.77S
HALLOCK        CLOUDY    61  57  88 SW5       29.78S
THF RVR FALLS  CLEAR     61  52  72 W9        29.80S
BAUDETTE       CLEAR     61  52  72 SW7       29.76R
WASKISH        CLEAR     61  54  77 S3        29.79S
CROOKSTON      CLEAR     61  55  82 N6        29.78F
STEPHEN NDAWN    N/A     59  55  88 W3          N/A
GREENBUSH NDAW   N/A     61  55  82 W6          N/A
$$
  *****  WEATHER ACROSS CENTRAL AND WEST MINNESOTA  *****

CITY           SKY/WX    TMP DP  RH WIND       PRES   REMARKS
FOSSTON        CLEAR     57  55  94 SE3       29.79F
BEMIDJI        CLEAR     60  51  74 CALM      29.81S
PARK RAPIDS    CLOUDY    65  52  62 E5        29.81F
ELBOW LAKE     FAIR      66  50  54 CALM      29.79R
WADENA         CLOUDY    63  52  67 E7        29.80S
DETROIT LAKES  CLEAR     64  54  68 E5        29.81S
MOORHEAD       MOCLDY    68  55  64 E6        29.77S
FERGUS FALLS   PTCLDY    66  54  63 E5        29.75R
MORRIS MN      PTCLDY    66  46  48 CALM      29.77S
STAPLES        CLOUDY    63  50  63 CALM      29.81F
$$
  *****  WEATHER ELSEWHERE ACROSS MINNESOTA  *****

CITY           SKY/WX    TMP DP  RH WIND       PRES   REMARKS
DULUTH         CLOUDY    51  49  92 CALM      29.83F
INTRNTL FALLS  CLEAR     62  53  72 SW5       29.77R
ELY            PTCLDY    63  54  72 S3        29.80S
CLOQUET        CLOUDY    52  48  87 CALM      29.84S
WHEATON        PTCLDY    70  54  56 S3        29.79R
BRAINERD       MOCLDY    59  53  80 CALM      29.82F
HIBBING        CLOUDY    59  51  75 CALM      29.80F
ALEXANDRIA     PTCLDY    67  49  52 E6        29.80F
SAINT CLOUD    CLOUDY    64  55  72 E3        29.80F
MINNEAPOLIS    CLOUDY    76  51  41 S5        29.82F
$$

  *****  WEATHER ACROSS SOUTH DAKOTA  *****

CITY           SKY/WX    TMP DP  RH WIND       PRES   REMARKS
SIOUX FALLS    CLOUDY    68  55  63 E9        29.78F
BROOKINGS      CLOUDY    68  52  56 CALM      29.78F
WATERTOWN      CLOUDY    67  49  52 SE8       29.80R
HURON          CLOUDY    65  58  78 CALM      29.79R
SISSETON         N/A     67  52  58 W3        29.76S
ABERDEEN       CLOUDY    64  55  72 S12       29.80R
MITCHELL       CLOUDY    66  59  78 SE6       29.77R
PIERRE         CLEAR     61  50  67 N7        29.77R
MOBRIDGE       CLEAR     61  49  64 N8        29.76S
RAPID CITY     PTCLDY    54  46  74 N9        29.82F
$$

  *****  SOME WEATHER IN NEARBY STATES *****

CITY           SKY/WX    TMP DP  RH WIND       PRES   REMARKS
GLASGOW MT     CLOUDY    57  50  77 NE15      29.84R
GREAT FALLS MT CLOUDY    54  46  74 W7        29.94R
CHEYENNE WY    CLOUDY    47  41  80 NW5       29.93R
SCOTTSBLUFF NE CLOUDY    56  45  66 NW6       29.85R
OMAHA NE       CLOUDY    64  56  75 SE24G33   29.76F
DES MOINES IA  LGT RAIN  63  59  87 S12       29.93F
DAVENPORT IA   CLOUDY    76  64  66 SW10      29.89R
CHICAGO IL     CLOUDY    79  63  57 NE3       29.88S
EAU CLAIRE WI  CLOUDY    68  55  63 S3        29.84F
LA CROSSE WI   CLOUDY    70  61  73 E5        29.84F
$$

  *****  SOME NATIONAL WEATHER *****

CITY           SKY/WX    TMP DP  RH WIND       PRES   REMARKS
LA GUARDIA NY  PTCLDY    73  62  68 S10       30.05S
RALEIGH NC     PTCLDY    76  62  62 S6        30.11S
ATLANTA GA     PTCLDY    79  62  56 S8        30.09S
NEW ORLEANS LA CLOUDY    80  71  74 SE9       30.01R
OKLAHOMA CITY  CLOUDY    72  63  73 S21G30    29.69R
ALBUQUERQUE NM PTCLDY    63  17  17 NW13G21   29.91R
SALT LAKE CITY MOCLDY    63  37  38 E15       29.94R
LOS ANGELES CA CLEAR     61  53  75 SW9       29.97S
BOISE ID       MOCLDY    70  35  27 N6        29.89S
SEATTLE WA     MOCLDY    56  44  64 SW14      30.13F
$$

*** WEATHER ACROSS MANITOBA...SASKATCHEWAN AND ONTARIO ***
                ***ONTARIO***

CITY           SKY/WX    TMP DP  RH WIND       PRES   REMARKS
GERALDTON      MOCLDY    55  52  88 E6        29.84R
THUNDER BAY    FOG       52  52 100 NE5       29.84R VSB 3/8
SIOUX LOOKOUT  MOCLDY    57  55  94 SE2       29.78R
TORONTO        MOCLDY    64  57  77 SE5       29.94R
BIG TROUT LK   CLOUDY    57  50  77 VRB2      29.78R
PICKLE LAKE    NOT AVBL
DRYDEN         MOCLDY    61  57  88 S6        29.77R
KENORA         CLOUDY    63  55  77 S5        29.74R
$$
                *** MANITOBA***

CITY           SKY/WX    TMP DP  RH WIND       PRES   REMARKS
BRANDON        CLOUDY    57  55  94 W8        29.78S
DAUPHIN        CLOUDY    57  55  94 SW6       29.77S
ISLAND LAKE    MOCLDY    59  50  72 N12G25    29.80R
PILOT MOUND      N/A     55  52  88 N6          N/A
THE PAS        PTCLDY    59  46  63 NE10G20   29.88R
THOMPSON       CLOUDY    41  34  75 NE15G23   30.02R
WINNIPEG       CLOUDY    59  57  94 N8        29.73R
LYNN LAKE      CLOUDY    41  34  75 E12G23    30.08R
CHURCHILL      LGT SNOW  30  30 100 NE21      30.20R WCI  17
GILLAM         CLOUDY    36  32  87 NE21G29   30.04R
$$
                ***SASKATCHEWAN***

CITY           SKY/WX    TMP DP  RH WIND       PRES   REMARKS
ESTEVAN        CLOUDY    52  50  93 NW2       29.84R
KINDERSLEY     PTCLDY    61  46  59 SE9       29.86R
LLOYDMINSTER   MOCLDY    57  48  72 CALM      29.83R
PRINCE ALBERT  PTCLDY    64  48  55 E16       29.83R
REGINA         MOCLDY    52  50  93 SW5       29.86R
YORKTON        MOCLDY    61  50  67 NW2       29.81R
N. BATTLEFORD  CLEAR     61  46  59 E2        29.84S
LA RONGE       PTCLDY    57  45  62 NE7       29.92R
SASKATOON      PTCLDY    63  48  59 S7        29.85R
SWIFT CURRENT  CLEAR     55  50  82 S6        29.89R
$$
NOTE: THESE ARE AUTOMATED STATIONS WITH LIMITED QUALITY CONTROL
      "FAIR" INDICATES FEW OR NO CLOUDS BELOW 12,000 FEET WITH NO
      SIGNIFICANT WEATHER AND/OR OBSTRUCTIONS TO VISIBILITY.
      SKY/WX - SKY CONDITION AND SIGNIFICANT WEATHER.
      TMP - AIR TEMPERATURE.    DP   - DEWPOINT TEMPERATURE.
      RH  - RELATIVE HUMIDITY.  PRES - PRESSURE.
      HX  - HEAT INDEX.         WCI  - WIND CHILL INDEX.
$




USA.gov is the U.S. government's official web portal to all federal, state and local government web resources and services.